Time,TemperatureF,DewpointF,PressureIn,WindDirection,WindDirectionDegrees,WindSpeedMPH,WindSpeedGustMPH,Humidity,HourlyPrecipIn,Conditions,Clouds,dailyrainin,SoftwareType,DateUTC
2013-01-27 00:03:00,53.8,51.8,29.62,East,80,0.0,2.0,93,0.00,,,0.00,Wunderground v.1.15,2013-01-27 08:03:00,
2013-01-27 00:09:00,53.6,51.6,29.62,NE,46,1.0,3.0,93,0.00,,,0.00,Wunderground v.1.15,2013-01-27 08:09:00,
2013-01-27 00:14:00,53.5,51.5,29.62,NE,39,1.0,1.0,93,0.00,,,0.00,Wunderground v.1.15,2013-01-27 08:14:00,
2013-01-27 00:19:00,53.4,51.4,29.62,NNE,20,1.0,3.0,93,0.00,,,0.00,Wunderground v.1.15,2013-01-27 08:19:00,
2013-01-27 00:24:00,53.2,51.2,29.62,NNE,28,1.0,3.0,93,0.00,,,0.00,Wunderground v.1.15,2013-01-27 08:24:00,
2013-01-27 00:30:00,53.2,51.2,29.62,NNE,31,2.0,2.0,93,0.00,,,0.00,Wunderground v.1.15,2013-01-27 08:30:00,
2013-01-27 00:36:00,53.1,51.1,29.62,NNE,22,2.0,3.0,93,0.00,,,0.00,Wunderground v.1.15,2013-01-27 08:36:00,
2013-01-27 00:42:00,53.0,50.7,29.62,NE,35,2.0,4.0,92,0.00,,,0.00,Wunderground v.1.15,2013-01-27 08:42:00,
2013-01-27 00:47:00,52.9,50.6,29.62,NNE,33,2.0,4.0,92,0.00,,,0.00,Wunderground v.1.15,2013-01-27 08:47:00,
2013-01-27 00:52:00,52.9,50.6,29.62,NNE,31,2.0,2.0,92,0.00,,,0.00,Wunderground v.1.15,2013-01-27 08:52:00,
2013-01-27 00:57:00,52.8,50.5,29.62,NE,53,2.0,4.0,92,0.00,,,0.00,Wunderground v.1.15,2013-01-27 08:57:00,
2013-01-27 01:02:00,52.8,50.5,29.62,NE,55,1.0,4.0,92,0.00,,,0.00,Wunderground v.1.15,2013-01-27 09:02:00,
2013-01-27 01:08:00,52.8,50.5,29.62,NNE,20,1.0,4.0,92,0.00,,,0.00,Wunderground v.1.15,2013-01-27 09:08:00,
2013-01-27 01:13:00,52.8,50.5,29.62,NE,51,2.0,3.0,92,0.00,,,0.00,Wunderground v.1.15,2013-01-27 09:13:00,
2013-01-27 01:19:00,52.7,50.4,29.62,NNE,32,2.0,3.0,92,0.00,,,0.00,Wunderground v.1.15,2013-01-27 09:19:00,
2013-01-27 01:25:00,52.7,50.4,29.62,NNE,17,1.0,2.0,92,0.00,,,0.00,Wunderground v.1.15,2013-01-27 09:25:00,
2013-01-27 01:31:00,52.6,50.0,29.63,North,355,1.0,2.0,91,0.00,,,0.00,Wunderground v.1.15,2013-01-27 09:31:00,
2013-01-27 01:37:00,52.6,50.3,29.63,North,9,2.0,4.0,92,0.00,,,0.00,Wunderground v.1.15,2013-01-27 09:37:00,
2013-01-27 01:42:00,52.5,49.9,29.63,NNE,23,2.0,2.0,91,0.00,,,0.00,Wunderground v.1.15,2013-01-27 09:42:00,
2013-01-27 01:48:00,52.5,49.9,29.63,NNE,26,1.0,2.0,91,0.00,,,0.00,Wunderground v.1.15,2013-01-27 09:48:00,
2013-01-27 01:53:00,52.5,50.2,29.63,NE,40,1.0,2.0,92,0.00,,,0.00,Wunderground v.1.15,2013-01-27 09:53:00,
2013-01-27 01:59:00,52.4,50.1,29.63,NNE,30,1.0,2.0,92,0.00,,,0.00,Wunderground v.1.15,2013-01-27 09:59:00,
2013-01-27 02:05:00,52.4,50.1,29.63,NNE,20,0.0,2.0,92,0.00,,,0.00,Wunderground v.1.15,2013-01-27 10:05:00,
2013-01-27 02:11:00,52.3,50.0,29.64,North,9,1.0,1.0,92,0.00,,,0.00,Wunderground v.1.15,2013-01-27 10:11:00,
2013-01-27 02:17:00,52.3,50.0,29.64,NNE,24,1.0,3.0,92,0.00,,,0.00,Wunderground v.1.15,2013-01-27 10:17:00,
2013-01-27 02:22:00,52.3,50.0,29.64,NNE,21,1.0,1.0,92,0.00,,,0.00,Wunderground v.1.15,2013-01-27 10:22:00,
2013-01-27 02:28:00,52.3,50.0,29.63,NNE,24,0.0,1.0,92,0.00,,,0.00,Wunderground v.1.15,2013-01-27 10:28:00,
2013-01-27 02:33:00,52.4,50.4,29.64,NE,34,0.0,1.0,93,0.00,,,0.00,Wunderground v.1.15,2013-01-27 10:33:00,
2013-01-27 02:39:00,52.3,50.3,29.63,East,87,0.0,1.0,93,0.00,,,0.00,Wunderground v.1.15,2013-01-27 10:39:00,
2013-01-27 02:45:00,52.4,50.4,29.63,NE,40,0.0,1.0,93,0.00,,,0.00,Wunderground v.1.15,2013-01-27 10:45:00,
2013-01-27 02:51:00,52.3,50.3,29.63,NE,44,0.0,1.0,93,0.00,,,0.00,Wunderground v.1.15,2013-01-27 10:51:00,
2013-01-27 02:56:00,52.3,50.3,29.63,NE,44,0.0,1.0,93,0.00,,,0.00,Wunderground v.1.15,2013-01-27 10:56:00,
2013-01-27 03:02:00,52.3,50.3,29.63,NNE,32,0.0,1.0,93,0.00,,,0.00,Wunderground v.1.15,2013-01-27 11:02:00,
2013-01-27 03:07:00,52.3,50.3,29.62,NNE,31,0.0,2.0,93,0.00,,,0.00,Wunderground v.1.15,2013-01-27 11:07:00,
2013-01-27 03:13:00,52.2,50.2,29.62,NNE,30,0.0,1.0,93,0.00,,,0.00,Wunderground v.1.15,2013-01-27 11:13:00,
2013-01-27 03:19:00,52.2,50.2,29.62,NE,36,0.0,1.0,93,0.00,,,0.00,Wunderground v.1.15,2013-01-27 11:19:00,
2013-01-27 03:25:00,52.2,50.2,29.62,NE,48,0.0,1.0,93,0.00,,,0.00,Wunderground v.1.15,2013-01-27 11:25:00,
2013-01-27 03:30:00,52.1,50.4,29.62,NNE,28,1.0,1.0,94,0.00,,,0.00,Wunderground v.1.15,2013-01-27 11:30:00,
2013-01-27 03:35:00,52.1,50.4,29.62,NNE,22,1.0,1.0,94,0.00,,,0.00,Wunderground v.1.15,2013-01-27 11:35:00,
2013-01-27 03:41:00,52.0,50.3,29.62,NNE,17,0.0,1.0,94,0.00,,,0.00,Wunderground v.1.15,2013-01-27 11:41:00,
2013-01-27 03:46:00,52.0,50.3,29.62,NNE,33,0.0,1.0,94,0.00,,,0.00,Wunderground v.1.15,2013-01-27 11:46:00,
2013-01-27 03:52:00,52.0,50.3,29.62,NE,34,0.0,1.0,94,0.00,,,0.00,Wunderground v.1.15,2013-01-27 11:52:00,
2013-01-27 03:58:00,52.0,50.3,29.62,NE,40,0.0,1.0,94,0.00,,,0.00,Wunderground v.1.15,2013-01-27 11:58:00,
2013-01-27 04:04:00,52.0,50.6,29.62,ENE,65,0.0,1.0,95,0.00,,,0.00,Wunderground v.1.15,2013-01-27 12:04:00,
2013-01-27 04:09:00,51.9,50.5,29.62,ENE,77,0.0,1.0,95,0.00,,,0.00,Wunderground v.1.15,2013-01-27 12:09:00,
2013-01-27 04:14:00,51.9,50.5,29.62,ENE,77,0.0,1.0,95,0.00,,,0.00,Wunderground v.1.15,2013-01-27 12:14:00,
2013-01-27 04:20:00,51.9,50.5,29.62,ENE,77,0.0,1.0,95,0.00,,,0.00,Wunderground v.1.15,2013-01-27 12:20:00,
2013-01-27 04:25:00,51.9,50.5,29.62,ENE,78,0.0,1.0,95,0.00,,,0.00,Wunderground v.1.15,2013-01-27 12:25:00,
2013-01-27 04:31:00,51.9,50.5,29.62,ENE,78,0.0,1.0,95,0.00,,,0.00,Wunderground v.1.15,2013-01-27 12:31:00,
2013-01-27 04:37:00,51.9,50.5,29.61,ENE,78,0.0,1.0,95,0.00,,,0.00,Wunderground v.1.15,2013-01-27 12:37:00,
2013-01-27 04:43:00,51.9,50.5,29.61,ENE,78,0.0,1.0,95,0.00,,,0.00,Wunderground v.1.15,2013-01-27 12:43:00,
2013-01-27 04:49:00,51.8,50.4,29.61,ENE,78,0.0,1.0,95,0.00,,,0.00,Wunderground v.1.15,2013-01-27 12:49:00,
2013-01-27 04:55:00,51.9,50.8,29.61,ENE,78,0.0,1.0,96,0.00,,,0.00,Wunderground v.1.15,2013-01-27 12:55:00,
2013-01-27 05:01:00,51.9,50.5,29.61,ENE,78,0.0,1.0,95,0.00,,,0.00,Wunderground v.1.15,2013-01-27 13:01:00,
2013-01-27 05:07:00,51.8,50.4,29.61,ENE,78,0.0,1.0,95,0.00,,,0.00,Wunderground v.1.15,2013-01-27 13:07:00,
2013-01-27 05:12:00,51.8,50.4,29.61,ENE,78,0.0,1.0,95,0.00,,,0.00,Wunderground v.1.15,2013-01-27 13:12:00,
2013-01-27 05:18:00,51.7,50.3,29.61,East,79,0.0,1.0,95,0.00,,,0.00,Wunderground v.1.15,2013-01-27 13:18:00,
2013-01-27 05:24:00,51.7,50.6,29.61,East,79,0.0,1.0,96,0.00,,,0.00,Wunderground v.1.15,2013-01-27 13:24:00,
2013-01-27 05:29:00,51.7,50.6,29.61,East,79,0.0,1.0,96,0.00,,,0.00,Wunderground v.1.15,2013-01-27 13:29:00,
2013-01-27 05:34:00,51.7,50.6,29.61,East,79,0.0,1.0,96,0.00,,,0.00,Wunderground v.1.15,2013-01-27 13:34:00,
2013-01-27 05:39:00,51.7,50.6,29.61,East,79,0.0,1.0,96,0.00,,,0.00,Wunderground v.1.15,2013-01-27 13:39:00,
2013-01-27 05:44:00,51.7,50.6,29.61,ENE,67,0.0,1.0,96,0.00,,,0.00,Wunderground v.1.15,2013-01-27 13:44:00,
2013-01-27 05:50:00,51.7,50.6,29.61,ENE,67,0.0,1.0,96,0.00,,,0.00,Wunderground v.1.15,2013-01-27 13:50:00,
2013-01-27 05:56:00,51.7,50.6,29.62,ENE,67,0.0,1.0,96,0.00,,,0.00,Wunderground v.1.15,2013-01-27 13:56:00,
2013-01-27 06:02:00,51.7,50.6,29.62,ENE,67,0.0,1.0,96,0.00,,,0.00,Wunderground v.1.15,2013-01-27 14:02:00,
2013-01-27 06:08:00,51.7,50.6,29.62,ENE,67,0.0,1.0,96,0.00,,,0.00,Wunderground v.1.15,2013-01-27 14:08:00,
2013-01-27 06:13:00,51.6,50.5,29.62,ENE,67,0.0,1.0,96,0.00,,,0.00,Wunderground v.1.15,2013-01-27 14:13:00,
2013-01-27 06:19:00,51.6,50.5,29.62,ENE,67,0.0,1.0,96,0.00,,,0.00,Wunderground v.1.15,2013-01-27 14:19:00,
2013-01-27 06:24:00,51.6,50.5,29.63,ENE,67,0.0,1.0,96,0.00,,,0.00,Wunderground v.1.15,2013-01-27 14:24:00,
2013-01-27 06:30:00,51.6,50.5,29.63,ENE,67,0.0,1.0,96,0.00,,,0.00,Wunderground v.1.15,2013-01-27 14:30:00,
2013-01-27 06:36:00,51.7,50.6,29.63,ENE,67,0.0,1.0,96,0.00,,,0.00,Wunderground v.1.15,2013-01-27 14:36:00,
2013-01-27 06:41:00,51.7,50.6,29.63,ENE,67,0.0,1.0,96,0.00,,,0.00,Wunderground v.1.15,2013-01-27 14:41:00,
2013-01-27 06:46:00,51.7,50.6,29.63,ENE,67,0.0,1.0,96,0.00,,,0.00,Wunderground v.1.15,2013-01-27 14:46:00,
2013-01-27 06:52:00,51.8,50.7,29.63,ENE,67,0.0,1.0,96,0.00,,,0.00,Wunderground v.1.15,2013-01-27 14:52:00,
2013-01-27 06:57:00,51.8,50.7,29.63,ENE,67,0.0,1.0,96,0.00,,,0.00,Wunderground v.1.15,2013-01-27 14:57:00,
2013-01-27 07:03:00,51.8,50.7,29.62,ENE,67,0.0,1.0,96,0.00,,,0.00,Wunderground v.1.15,2013-01-27 15:03:00,
2013-01-27 07:08:00,51.8,50.7,29.62,ENE,67,0.0,1.0,96,0.00,,,0.00,Wunderground v.1.15,2013-01-27 15:08:00,
2013-01-27 07:14:00,51.8,50.7,29.62,ENE,67,0.0,1.0,96,0.00,,,0.00,Wunderground v.1.15,2013-01-27 15:14:00,
2013-01-27 07:20:00,51.8,50.7,29.62,ENE,67,0.0,1.0,96,0.00,,,0.00,Wunderground v.1.15,2013-01-27 15:20:00,
2013-01-27 07:26:00,51.9,50.8,29.62,ENE,67,0.0,1.0,96,0.00,,,0.00,Wunderground v.1.15,2013-01-27 15:26:00,
2013-01-27 07:31:00,52.0,50.9,29.62,ENE,67,0.0,1.0,96,0.00,,,0.00,Wunderground v.1.15,2013-01-27 15:31:00,
2013-01-27 07:36:00,52.0,50.9,29.62,ENE,67,0.0,1.0,96,0.00,,,0.00,Wunderground v.1.15,2013-01-27 15:36:00,
2013-01-27 07:42:00,52.0,50.9,29.63,ENE,67,0.0,1.0,96,0.00,,,0.00,Wunderground v.1.15,2013-01-27 15:42:00,
2013-01-27 07:47:00,52.0,50.9,29.63,ENE,67,0.0,1.0,96,0.00,,,0.00,Wunderground v.1.15,2013-01-27 15:47:00,
2013-01-27 07:52:00,52.1,51.0,29.63,NE,55,0.0,2.0,96,0.00,,,0.00,Wunderground v.1.15,2013-01-27 15:52:00,
2013-01-27 07:58:00,52.2,51.1,29.63,NE,34,0.0,2.0,96,0.00,,,0.00,Wunderground v.1.15,2013-01-27 15:58:00,
2013-01-27 08:03:00,52.3,51.2,29.63,NNE,27,1.0,1.0,96,0.00,,,0.00,Wunderground v.1.15,2013-01-27 16:03:00,
2013-01-27 08:09:00,52.3,50.9,29.63,NNE,31,1.0,1.0,95,0.00,,,0.00,Wunderground v.1.15,2013-01-27 16:09:00,
2013-01-27 08:14:00,52.4,51.0,29.63,NE,44,0.0,1.0,95,0.00,,,0.00,Wunderground v.1.15,2013-01-27 16:14:00,
2013-01-27 08:20:00,52.5,51.1,29.63,NE,44,0.0,1.0,95,0.00,,,0.00,Wunderground v.1.15,2013-01-27 16:20:00,
2013-01-27 08:26:00,52.6,51.2,29.63,NE,49,0.0,1.0,95,0.00,,,0.00,Wunderground v.1.15,2013-01-27 16:26:00,
2013-01-27 08:31:00,52.7,51.0,29.63,NE,49,0.0,1.0,94,0.00,,,0.00,Wunderground v.1.15,2013-01-27 16:31:00,
2013-01-27 08:37:00,52.7,51.0,29.64,NE,49,0.0,1.0,94,0.00,,,0.00,Wunderground v.1.15,2013-01-27 16:37:00,
2013-01-27 08:42:00,52.9,51.2,29.64,NE,49,0.0,1.0,94,0.00,,,0.00,Wunderground v.1.15,2013-01-27 16:42:00,
2013-01-27 08:48:00,53.0,51.3,29.64,NE,38,0.0,1.0,94,0.00,,,0.00,Wunderground v.1.15,2013-01-27 16:48:00,
2013-01-27 08:53:00,53.1,51.1,29.64,NE,38,0.0,1.0,93,0.00,,,0.00,Wunderground v.1.15,2013-01-27 16:53:00,
2013-01-27 08:59:00,53.2,51.2,29.64,NE,37,0.0,1.0,93,0.00,,,0.00,Wunderground v.1.15,2013-01-27 16:59:00,
2013-01-27 09:05:00,53.3,51.3,29.64,NE,37,0.0,1.0,93,0.00,,,0.00,Wunderground v.1.15,2013-01-27 17:05:00,
2013-01-27 09:11:00,53.4,51.1,29.64,NE,37,0.0,1.0,92,0.00,,,0.00,Wunderground v.1.15,2013-01-27 17:11:00,
2013-01-27 09:17:00,53.5,51.2,29.64,ENE,72,0.0,1.0,92,0.00,,,0.00,Wunderground v.1.15,2013-01-27 17:17:00,
2013-01-27 09:22:00,53.6,51.0,29.65,ENE,72,0.0,1.0,91,0.00,,,0.00,Wunderground v.1.15,2013-01-27 17:22:00,
2013-01-27 09:27:00,53.7,51.1,29.65,South,185,0.0,2.0,91,0.00,,,0.00,Wunderground v.1.15,2013-01-27 17:27:00,
2013-01-27 09:33:00,53.6,51.3,29.65,WSW,247,1.0,4.0,92,0.00,,,0.00,Wunderground v.1.15,2013-01-27 17:33:00,
2013-01-27 09:38:00,53.5,51.5,29.65,WSW,250,1.0,4.0,93,0.00,,,0.00,Wunderground v.1.15,2013-01-27 17:38:00,
2013-01-27 09:44:00,53.4,51.4,29.65,WSW,249,0.0,1.0,93,0.00,,,0.01,Wunderground v.1.15,2013-01-27 17:44:00,
2013-01-27 09:50:00,53.4,51.7,29.65,WSW,249,0.0,1.0,94,0.00,,,0.01,Wunderground v.1.15,2013-01-27 17:50:00,
2013-01-27 09:55:00,53.4,51.7,29.66,West,271,0.0,1.0,94,0.07,,,0.02,Wunderground v.1.15,2013-01-27 17:55:00,
2013-01-27 10:01:00,53.4,51.7,29.65,West,271,0.0,1.0,94,0.06,,,0.02,Wunderground v.1.15,2013-01-27 18:01:00,
2013-01-27 10:06:00,53.4,51.7,29.66,West,271,0.0,1.0,94,0.06,,,0.03,Wunderground v.1.15,2013-01-27 18:06:00,
2013-01-27 10:12:00,53.3,51.3,29.66,West,271,0.0,1.0,93,0.07,,,0.04,Wunderground v.1.15,2013-01-27 18:12:00,
2013-01-27 10:18:00,53.6,51.9,29.65,North,351,0.0,1.0,94,0.07,,,0.04,Wunderground v.1.15,2013-01-27 18:18:00,
2013-01-27 10:23:00,54.1,51.8,29.65,North,351,0.0,1.0,92,0.06,,,0.05,Wunderground v.1.15,2013-01-27 18:23:00,
2013-01-27 10:29:00,54.8,52.2,29.65,North,355,0.0,1.0,91,0.06,,,0.05,Wunderground v.1.15,2013-01-27 18:29:00,
2013-01-27 10:34:00,55.5,53.2,29.65,SE,130,0.0,1.0,92,0.06,,,0.06,Wunderground v.1.15,2013-01-27 18:34:00,
2013-01-27 10:40:00,56.1,53.2,29.65,East,101,1.0,2.0,90,0.06,,,0.06,Wunderground v.1.15,2013-01-27 18:40:00,
2013-01-27 10:46:00,56.3,51.5,29.65,SE,142,1.0,2.0,84,0.04,,,0.06,Wunderground v.1.15,2013-01-27 18:46:00,
2013-01-27 10:52:00,56.9,52.8,29.64,SE,134,1.0,3.0,86,0.00,,,0.06,Wunderground v.1.15,2013-01-27 18:52:00,
2013-01-27 10:58:00,56.9,51.5,29.64,ENE,76,1.0,3.0,82,0.00,,,0.06,Wunderground v.1.15,2013-01-27 18:58:00,
2013-01-27 11:04:00,57.3,51.2,29.64,SE,127,1.0,3.0,80,0.00,,,0.06,Wunderground v.1.15,2013-01-27 19:04:00,
2013-01-27 11:09:00,57.4,50.2,29.64,ESE,121,1.0,3.0,77,0.00,,,0.06,Wunderground v.1.15,2013-01-27 19:09:00,
2013-01-27 11:14:00,57.8,50.6,29.63,NE,48,1.0,1.0,77,0.00,,,0.06,Wunderground v.1.15,2013-01-27 19:14:00,
2013-01-27 11:19:00,58.1,49.9,29.63,NE,45,1.0,4.0,74,0.00,,,0.06,Wunderground v.1.15,2013-01-27 19:19:00,
2013-01-27 11:24:00,58.5,50.2,29.63,ESE,123,1.0,1.0,74,0.00,,,0.06,Wunderground v.1.15,2013-01-27 19:24:00,
2013-01-27 11:30:00,59.0,50.4,29.63,ESE,111,1.0,1.0,73,0.00,,,0.06,Wunderground v.1.15,2013-01-27 19:30:00,
2013-01-27 11:36:00,59.0,49.6,29.63,East,92,1.0,2.0,71,0.00,,,0.06,Wunderground v.1.15,2013-01-27 19:36:00,
2013-01-27 11:41:00,59.0,48.8,29.63,ENE,74,2.0,2.0,69,0.00,,,0.06,Wunderground v.1.15,2013-01-27 19:41:00,
2013-01-27 11:47:00,59.1,48.5,29.62,ENE,78,2.0,3.0,68,0.00,,,0.06,Wunderground v.1.15,2013-01-27 19:47:00,
2013-01-27 11:53:00,59.5,48.9,29.62,ENE,60,1.0,1.0,68,0.00,,,0.06,Wunderground v.1.15,2013-01-27 19:53:00,
2013-01-27 11:58:00,59.7,49.1,29.62,SE,142,2.0,4.0,68,0.00,,,0.06,Wunderground v.1.15,2013-01-27 19:58:00,
2013-01-27 12:04:00,60.0,48.6,29.62,SSE,157,3.0,5.0,66,0.00,,,0.06,Wunderground v.1.15,2013-01-27 20:04:00,
2013-01-27 12:09:00,59.9,46.8,29.61,South,171,3.0,5.0,62,0.00,,,0.06,Wunderground v.1.15,2013-01-27 20:09:00,
2013-01-27 12:14:00,59.9,47.7,29.61,SSW,200,3.0,5.0,64,0.00,,,0.06,Wunderground v.1.15,2013-01-27 20:14:00,
2013-01-27 12:19:00,60.0,48.2,29.61,ESE,121,3.0,5.0,65,0.00,,,0.06,Wunderground v.1.15,2013-01-27 20:19:00,
2013-01-27 12:25:00,60.2,47.1,29.60,SSE,163,3.0,5.0,62,0.00,,,0.06,Wunderground v.1.15,2013-01-27 20:25:00,
2013-01-27 12:30:00,60.3,47.6,29.60,SE,138,2.0,4.0,63,0.00,,,0.06,Wunderground v.1.15,2013-01-27 20:30:00,
2013-01-27 12:36:00,60.8,48.5,29.60,SE,144,2.0,5.0,64,0.00,,,0.06,Wunderground v.1.15,2013-01-27 20:36:00,
2013-01-27 12:42:00,60.8,49.8,29.59,ESE,103,3.0,4.0,67,0.00,,,0.06,Wunderground v.1.15,2013-01-27 20:42:00,
2013-01-27 12:47:00,61.2,49.3,29.59,SSE,153,3.0,4.0,65,0.00,,,0.06,Wunderground v.1.15,2013-01-27 20:47:00,
2013-01-27 12:52:00,61.1,48.4,29.59,SSE,155,2.0,3.0,63,0.00,,,0.06,Wunderground v.1.15,2013-01-27 20:52:00,
2013-01-27 12:58:00,60.9,47.8,29.59,SE,142,3.0,5.0,62,0.00,,,0.06,Wunderground v.1.15,2013-01-27 20:58:00,
2013-01-27 13:04:00,61.0,48.7,29.59,South,181,3.0,3.0,64,0.00,,,0.06,Wunderground v.1.15,2013-01-27 21:04:00,
2013-01-27 13:10:00,60.5,48.7,29.58,South,174,2.0,2.0,65,0.00,,,0.06,Wunderground v.1.15,2013-01-27 21:10:00,
2013-01-27 13:16:00,60.3,48.9,29.58,WSW,237,2.0,5.0,66,0.00,,,0.06,Wunderground v.1.15,2013-01-27 21:16:00,
2013-01-27 13:21:00,60.9,50.3,29.58,WSW,239,4.0,4.0,68,0.00,,,0.06,Wunderground v.1.15,2013-01-27 21:21:00,
2013-01-27 13:27:00,61.4,48.7,29.58,South,175,4.0,9.0,63,0.00,,,0.06,Wunderground v.1.15,2013-01-27 21:27:00,
2013-01-27 13:32:00,61.5,48.4,29.58,South,183,5.0,5.0,62,0.00,,,0.06,Wunderground v.1.15,2013-01-27 21:32:00,
2013-01-27 13:38:00,61.9,49.2,29.58,SW,219,4.0,5.0,63,0.00,,,0.06,Wunderground v.1.15,2013-01-27 21:38:00,
2013-01-27 13:43:00,61.7,46.3,29.57,South,172,5.0,7.0,57,0.00,,,0.06,Wunderground v.1.15,2013-01-27 21:43:00,
2013-01-27 13:48:00,61.8,48.6,29.57,SW,219,5.0,7.0,62,0.00,,,0.06,Wunderground v.1.15,2013-01-27 21:48:00,
2013-01-27 13:53:00,61.9,47.9,29.57,South,183,4.0,5.0,60,0.00,,,0.06,Wunderground v.1.15,2013-01-27 21:53:00,
2013-01-27 13:58:00,61.9,46.5,29.57,South,179,5.0,6.0,57,0.00,,,0.06,Wunderground v.1.15,2013-01-27 21:58:00,
2013-01-27 14:03:00,62.1,46.2,29.57,SSW,207,5.0,6.0,56,0.00,,,0.06,Wunderground v.1.15,2013-01-27 22:03:00,
2013-01-27 14:09:00,62.3,44.9,29.57,SSW,210,5.0,7.0,53,0.00,,,0.06,Wunderground v.1.15,2013-01-27 22:09:00,
2013-01-27 14:15:00,62.4,44.5,29.57,SW,216,5.0,6.0,52,0.00,,,0.06,Wunderground v.1.15,2013-01-27 22:15:00,
2013-01-27 14:21:00,62.3,43.9,29.57,SSW,198,5.0,9.0,51,0.00,,,0.06,Wunderground v.1.15,2013-01-27 22:21:00,
2013-01-27 14:26:00,62.6,42.6,29.56,SSW,210,5.0,10.0,48,0.00,,,0.06,Wunderground v.1.15,2013-01-27 22:26:00,
2013-01-27 14:32:00,62.5,42.0,29.56,South,178,5.0,8.0,47,0.00,,,0.06,Wunderground v.1.15,2013-01-27 22:32:00,
2013-01-27 14:38:00,62.6,40.4,29.56,SE,140,6.0,8.0,44,0.00,,,0.06,Wunderground v.1.15,2013-01-27 22:38:00,
2013-01-27 14:44:00,62.6,41.5,29.56,SSW,200,6.0,11.0,46,0.00,,,0.06,Wunderground v.1.15,2013-01-27 22:44:00,
2013-01-27 14:50:00,62.5,39.7,29.56,South,171,5.0,5.0,43,0.00,,,0.06,Wunderground v.1.15,2013-01-27 22:50:00,
2013-01-27 14:56:00,62.3,40.1,29.56,SSE,155,5.0,7.0,44,0.00,,,0.06,Wunderground v.1.15,2013-01-27 22:56:00,
2013-01-27 15:01:00,62.1,41.1,29.56,South,171,5.0,6.0,46,0.00,,,0.06,Wunderground v.1.15,2013-01-27 23:01:00,
2013-01-27 15:07:00,61.8,40.8,29.56,SSE,160,5.0,7.0,46,0.00,,,0.06,Wunderground v.1.15,2013-01-27 23:07:00,
2013-01-27 15:13:00,61.6,40.0,29.56,SSW,195,4.0,5.0,45,0.00,,,0.06,Wunderground v.1.15,2013-01-27 23:13:00,
2013-01-27 15:18:00,61.5,39.4,29.56,South,191,4.0,8.0,44,0.00,,,0.06,Wunderground v.1.15,2013-01-27 23:18:00,
2013-01-27 15:24:00,61.7,40.7,29.56,South,172,3.0,4.0,46,0.00,,,0.06,Wunderground v.1.15,2013-01-27 23:24:00,
2013-01-27 15:30:00,61.8,40.8,29.57,East,98,4.0,4.0,46,0.00,,,0.06,Wunderground v.1.15,2013-01-27 23:30:00,
2013-01-27 15:35:00,61.9,40.3,29.57,ESE,114,4.0,7.0,45,0.00,,,0.06,Wunderground v.1.15,2013-01-27 23:35:00,
2013-01-27 15:41:00,61.8,41.9,29.56,NNE,15,4.0,6.0,48,0.00,,,0.06,Wunderground v.1.15,2013-01-27 23:41:00,
2013-01-27 15:46:00,61.1,40.7,29.56,ENE,59,6.0,12.0,47,0.00,,,0.06,Wunderground v.1.15,2013-01-27 23:46:00,
2013-01-27 15:52:00,60.2,41.5,29.57,NE,48,9.0,11.0,50,0.00,,,0.06,Wunderground v.1.15,2013-01-27 23:52:00,
2013-01-27 15:57:00,59.5,41.3,29.57,NE,55,8.0,11.0,51,0.00,,,0.06,Wunderground v.1.15,2013-01-27 23:57:00,
2013-01-27 16:02:00,59.0,41.9,29.57,ENE,63,7.0,7.0,53,0.00,,,0.06,Wunderground v.1.15,2013-01-28 00:02:00,
2013-01-27 16:08:00,58.5,42.4,29.57,NNE,21,5.0,10.0,55,0.00,,,0.06,Wunderground v.1.15,2013-01-28 00:08:00,
2013-01-27 16:13:00,58.0,41.9,29.57,NNE,27,6.0,10.0,55,0.00,,,0.06,Wunderground v.1.15,2013-01-28 00:13:00,
2013-01-27 16:19:00,57.7,42.6,29.57,NE,43,6.0,10.0,57,0.00,,,0.06,Wunderground v.1.15,2013-01-28 00:19:00,
2013-01-27 16:24:00,57.3,40.3,29.57,NE,46,6.0,11.0,53,0.00,,,0.06,Wunderground v.1.15,2013-01-28 00:24:00,
2013-01-27 16:30:00,56.9,40.4,29.57,NE,52,6.0,6.0,54,0.00,,,0.06,Wunderground v.1.15,2013-01-28 00:30:00,
2013-01-27 16:36:00,56.3,39.9,29.57,ENE,74,6.0,9.0,54,0.00,,,0.06,Wunderground v.1.15,2013-01-28 00:36:00,
2013-01-27 16:41:00,56.0,40.1,29.57,ENE,65,6.0,6.0,55,0.00,,,0.06,Wunderground v.1.15,2013-01-28 00:41:00,
2013-01-27 16:47:00,55.8,39.9,29.57,NNE,25,5.0,6.0,55,0.00,,,0.06,Wunderground v.1.15,2013-01-28 00:47:00,
2013-01-27 16:52:00,55.7,40.2,29.57,ENE,57,5.0,8.0,56,0.00,,,0.06,Wunderground v.1.15,2013-01-28 00:52:00,
2013-01-27 16:58:00,55.6,39.7,29.57,NNE,25,4.0,9.0,55,0.00,,,0.06,Wunderground v.1.15,2013-01-28 00:58:00,
2013-01-27 17:03:00,55.4,40.0,29.57,NE,53,4.0,7.0,56,0.00,,,0.06,Wunderground v.1.15,2013-01-28 01:03:00,
2013-01-27 17:08:00,55.1,39.2,29.58,NNE,19,3.0,7.0,55,0.00,,,0.06,Wunderground v.1.15,2013-01-28 01:08:00,
2013-01-27 17:14:00,54.7,39.8,29.58,NNE,16,3.0,3.0,57,0.00,,,0.06,Wunderground v.1.15,2013-01-28 01:14:00,
2013-01-27 17:19:00,54.3,39.8,29.58,NNE,20,2.0,4.0,58,0.00,,,0.06,Wunderground v.1.15,2013-01-28 01:19:00,
2013-01-27 17:24:00,53.9,39.9,29.58,NNE,21,2.0,3.0,59,0.00,,,0.06,Wunderground v.1.15,2013-01-28 01:24:00,
2013-01-27 17:29:00,53.5,39.5,29.58,NNW,340,2.0,3.0,59,0.00,,,0.06,Wunderground v.1.15,2013-01-28 01:29:00,
2013-01-27 17:35:00,53.0,38.2,29.58,NNE,17,3.0,5.0,57,0.00,,,0.06,Wunderground v.1.15,2013-01-28 01:35:00,
2013-01-27 17:40:00,52.8,38.4,29.59,NE,50,3.0,3.0,58,0.00,,,0.06,Wunderground v.1.15,2013-01-28 01:40:00,
2013-01-27 17:46:00,52.5,38.1,29.59,NE,41,2.0,3.0,58,0.00,,,0.06,Wunderground v.1.15,2013-01-28 01:46:00,
2013-01-27 17:52:00,52.3,38.0,29.59,NE,51,2.0,2.0,58,0.00,,,0.06,Wunderground v.1.15,2013-01-28 01:52:00,
2013-01-27 17:58:00,51.9,38.0,29.59,NNE,32,2.0,3.0,59,0.00,,,0.06,Wunderground v.1.15,2013-01-28 01:58:00,
2013-01-27 18:04:00,51.6,39.8,29.59,NNE,12,1.0,1.0,64,0.00,,,0.06,Wunderground v.1.15,2013-01-28 02:04:00,
2013-01-27 18:09:00,51.2,39.8,29.60,NNE,12,0.0,1.0,65,0.00,,,0.06,Wunderground v.1.15,2013-01-28 02:09:00,
2013-01-27 18:15:00,50.4,39.9,29.60,NNE,24,0.0,1.0,67,0.00,,,0.06,Wunderground v.1.15,2013-01-28 02:15:00,
2013-01-27 18:21:00,50.0,39.1,29.60,NNE,24,0.0,1.0,66,0.00,,,0.06,Wunderground v.1.15,2013-01-28 02:21:00,
2013-01-27 18:26:00,49.4,39.3,29.60,NNE,24,0.0,1.0,68,0.00,,,0.06,Wunderground v.1.15,2013-01-28 02:26:00,
2013-01-27 18:32:00,48.7,40.4,29.60,North,355,0.0,1.0,73,0.00,,,0.06,Wunderground v.1.15,2013-01-28 02:32:00,
2013-01-27 18:38:00,48.0,40.8,29.60,North,355,0.0,1.0,76,0.00,,,0.06,Wunderground v.1.15,2013-01-28 02:38:00,
2013-01-27 18:43:00,47.4,40.9,29.60,ENE,59,0.0,1.0,78,0.00,,,0.06,Wunderground v.1.15,2013-01-28 02:43:00,
2013-01-27 18:49:00,46.8,40.6,29.61,North,355,0.0,1.0,79,0.00,,,0.06,Wunderground v.1.15,2013-01-28 02:49:00,
2013-01-27 18:55:00,46.1,40.3,29.61,North,355,1.0,1.0,80,0.00,,,0.06,Wunderground v.1.15,2013-01-28 02:55:00,
2013-01-27 19:00:00,45.5,40.0,29.61,North,355,1.0,1.0,81,0.00,,,0.06,Wunderground v.1.15,2013-01-28 03:00:00,
2013-01-27 19:06:00,45.0,39.8,29.61,NNW,327,0.0,1.0,82,0.00,,,0.06,Wunderground v.1.15,2013-01-28 03:06:00,
2013-01-27 19:12:00,44.5,39.3,29.61,NW,323,0.0,1.0,82,0.00,,,0.06,Wunderground v.1.15,2013-01-28 03:12:00,
2013-01-27 19:17:00,44.2,39.4,29.61,NW,323,0.0,1.0,83,0.00,,,0.06,Wunderground v.1.15,2013-01-28 03:17:00,
2013-01-27 19:22:00,43.8,39.0,29.62,NW,319,0.0,1.0,83,0.00,,,0.06,Wunderground v.1.15,2013-01-28 03:22:00,
2013-01-27 19:28:00,43.4,38.9,29.62,NNW,331,1.0,2.0,84,0.00,,,0.06,Wunderground v.1.15,2013-01-28 03:28:00,
2013-01-27 19:33:00,43.2,39.0,29.62,NNW,331,0.0,1.0,85,0.00,,,0.06,Wunderground v.1.15,2013-01-28 03:33:00,
2013-01-27 19:39:00,42.9,38.7,29.62,North,355,0.0,1.0,85,0.00,,,0.06,Wunderground v.1.15,2013-01-28 03:39:00,
2013-01-27 19:44:00,42.8,38.6,29.62,East,88,0.0,1.0,85,0.00,,,0.06,Wunderground v.1.15,2013-01-28 03:44:00,
2013-01-27 19:50:00,42.8,38.3,29.62,NE,47,1.0,1.0,84,0.00,,,0.06,Wunderground v.1.15,2013-01-28 03:50:00,
2013-01-27 19:59:00,42.6,37.8,29.62,NNW,337,1.0,4.0,83,0.00,,,0.06,Wunderground v.1.15,2013-01-28 03:59:00,
2013-01-27 20:04:00,42.4,37.9,29.62,NW,317,2.0,3.0,84,0.00,,,0.06,Wunderground v.1.15,2013-01-28 04:04:00,
2013-01-27 20:09:00,42.2,37.4,29.62,NNW,339,1.0,3.0,83,0.00,,,0.06,Wunderground v.1.15,2013-01-28 04:09:00,
2013-01-27 20:15:00,42.2,37.4,29.62,NW,325,1.0,2.0,83,0.00,,,0.06,Wunderground v.1.15,2013-01-28 04:15:00,
2013-01-27 20:21:00,42.0,37.2,29.63,NW,325,0.0,1.0,83,0.00,,,0.06,Wunderground v.1.15,2013-01-28 04:21:00,
2013-01-27 20:27:00,41.8,37.0,29.63,NW,325,0.0,1.0,83,0.00,,,0.06,Wunderground v.1.15,2013-01-28 04:27:00,
2013-01-27 20:32:00,41.8,37.0,29.63,NW,325,0.0,1.0,83,0.00,,,0.06,Wunderground v.1.15,2013-01-28 04:32:00,
2013-01-27 20:38:00,41.1,36.9,29.63,NW,315,0.0,1.0,85,0.00,,,0.06,Wunderground v.1.15,2013-01-28 04:38:00,
2013-01-27 20:43:00,40.8,36.6,29.63,NW,315,0.0,1.0,85,0.00,,,0.06,Wunderground v.1.15,2013-01-28 04:43:00,
2013-01-27 20:48:00,40.4,36.5,29.63,NNW,329,0.0,1.0,86,0.00,,,0.06,Wunderground v.1.15,2013-01-28 04:48:00,
2013-01-27 20:54:00,40.1,36.2,29.63,NW,321,0.0,1.0,86,0.00,,,0.06,Wunderground v.1.15,2013-01-28 04:54:00,
2013-01-27 21:00:00,39.9,35.8,29.63,NW,321,0.0,1.0,85,0.00,,,0.06,Wunderground v.1.15,2013-01-28 05:00:00,
2013-01-27 21:01:00,39.8,36.2,29.63,NW,321,0.0,1.0,87,0.00,,,0.06,Wunderground v.1.15,2013-01-28 05:01:00,
2013-01-27 21:07:00,39.4,35.6,29.64,WNW,288,0.0,2.0,86,0.00,,,0.06,Wunderground v.1.15,2013-01-28 05:07:00,
2013-01-27 21:12:00,39.1,35.6,29.64,NW,308,1.0,1.0,87,0.00,,,0.06,Wunderground v.1.15,2013-01-28 05:12:00,
2013-01-27 21:17:00,38.9,35.4,29.64,NW,308,1.0,2.0,87,0.00,,,0.06,Wunderground v.1.15,2013-01-28 05:17:00,
2013-01-27 21:19:00,38.9,35.9,29.64,NW,308,1.0,2.0,89,0.00,,,0.06,Wunderground v.1.15,2013-01-28 05:19:00,
2013-01-27 21:25:00,38.9,35.9,29.64,NW,320,0.0,1.0,89,0.00,,,0.06,Wunderground v.1.15,2013-01-28 05:25:00,
2013-01-27 21:30:00,39.0,36.0,29.64,ESE,113,1.0,1.0,89,0.00,,,0.06,Wunderground v.1.15,2013-01-28 05:30:00,
2013-01-27 21:36:00,39.1,36.1,29.65,ENE,65,1.0,1.0,89,0.00,,,0.06,Wunderground v.1.15,2013-01-28 05:36:00,
2013-01-27 21:42:00,39.0,36.0,29.65,NE,40,0.0,1.0,89,0.00,,,0.06,Wunderground v.1.15,2013-01-28 05:42:00,
2013-01-27 21:48:00,38.7,35.5,29.65,North,360,0.0,1.0,88,0.00,,,0.06,Wunderground v.1.15,2013-01-28 05:48:00,
2013-01-27 21:53:00,38.5,35.8,29.65,North,350,1.0,2.0,90,0.00,,,0.06,Wunderground v.1.15,2013-01-28 05:53:00,
2013-01-27 21:59:00,38.3,35.3,29.65,North,355,1.0,2.0,89,0.00,,,0.06,Wunderground v.1.15,2013-01-28 05:59:00,
2013-01-27 22:05:00,38.1,35.4,29.65,SE,128,0.0,2.0,90,0.00,,,0.06,Wunderground v.1.15,2013-01-28 06:05:00,
2013-01-27 22:11:00,38.1,35.7,29.65,SE,127,0.0,1.0,91,0.00,,,0.06,Wunderground v.1.15,2013-01-28 06:11:00,
2013-01-27 22:16:00,38.2,35.8,29.65,ESE,105,0.0,1.0,91,0.00,,,0.06,Wunderground v.1.15,2013-01-28 06:16:00,
2013-01-27 22:21:00,38.2,35.8,29.65,ESE,105,0.0,1.0,91,0.00,,,0.06,Wunderground v.1.15,2013-01-28 06:21:00,
2013-01-27 22:27:00,38.0,35.6,29.66,North,355,0.0,1.0,91,0.00,,,0.06,Wunderground v.1.15,2013-01-28 06:27:00,
2013-01-27 22:33:00,37.7,35.3,29.66,NNW,336,0.0,1.0,91,0.00,,,0.06,Wunderground v.1.15,2013-01-28 06:33:00,
2013-01-27 22:39:00,37.4,35.0,29.66,NNW,331,0.0,1.0,91,0.00,,,0.06,Wunderground v.1.15,2013-01-28 06:39:00,
2013-01-27 22:45:00,37.1,34.4,29.66,NNW,327,0.0,1.0,90,0.00,,,0.06,Wunderground v.1.15,2013-01-28 06:45:00,
2013-01-27 22:50:00,36.9,34.5,29.67,NNW,331,1.0,1.0,91,0.00,,,0.06,Wunderground v.1.15,2013-01-28 06:50:00,
2013-01-27 22:55:00,37.0,34.9,29.67,NNW,331,0.0,1.0,92,0.00,,,0.06,Wunderground v.1.15,2013-01-28 06:55:00,
2013-01-27 23:00:00,37.0,34.9,29.67,NNW,331,0.0,1.0,92,0.00,,,0.06,Wunderground v.1.15,2013-01-28 07:00:00,
2013-01-27 23:06:00,37.0,34.9,29.68,ESE,110,0.0,1.0,92,0.00,,,0.06,Wunderground v.1.15,2013-01-28 07:06:00,
2013-01-27 23:12:00,37.0,34.9,29.67,South,186,0.0,1.0,92,0.00,,,0.06,Wunderground v.1.15,2013-01-28 07:12:00,
2013-01-27 23:17:00,36.7,34.6,29.68,South,186,0.0,1.0,92,0.00,,,0.06,Wunderground v.1.15,2013-01-28 07:17:00,
2013-01-27 23:22:00,36.5,34.4,29.68,WSW,237,0.0,1.0,92,0.00,,,0.06,Wunderground v.1.15,2013-01-28 07:22:00,
2013-01-27 23:27:00,36.5,34.4,29.68,SW,226,0.0,1.0,92,0.00,,,0.06,Wunderground v.1.15,2013-01-28 07:27:00,
2013-01-27 23:33:00,36.6,34.8,29.68,NNE,28,0.0,3.0,93,0.00,,,0.06,Wunderground v.1.15,2013-01-28 07:33:00,
2013-01-27 23:38:00,36.5,34.7,29.67,North,350,1.0,3.0,93,0.00,,,0.06,Wunderground v.1.15,2013-01-28 07:38:00,
2013-01-27 23:43:00,36.5,34.7,29.68,North,5,0.0,1.0,93,0.00,,,0.06,Wunderground v.1.15,2013-01-28 07:43:00,
2013-01-27 23:48:00,36.4,34.3,29.68,North,5,0.0,1.0,92,0.00,,,0.06,Wunderground v.1.15,2013-01-28 07:48:00,
2013-01-27 23:54:00,36.2,34.1,29.68,North,5,0.0,1.0,92,0.00,,,0.06,Wunderground v.1.15,2013-01-28 07:54:00,
2013-01-27 23:59:00,36.1,34.3,29.67,North,5,0.0,1.0,93,0.00,,,0.06,Wunderground v.1.15,2013-01-28 07:59:00,